VR2R-13 Weather Reports


Display with metric or nautical units.
time (UTC)temp
F
wind
direction
speed
MPH
gust
MPH
rain 1hr
in
rain 24hr
in
rain mn
in
humidity
%
barometer
mb
20260505004237 59 73 9.0 11.0 0.01 0.01 0.00 97 915.7
20260505004138 59 85 4.0 11.0 0.00 0.00 0.00 97 915.6
20260505003736 59 59 9.0 14.0 0.01 0.01 0.00 97 915.6
20260505003538 59 75 10.0 12.0 0.01 0.01 0.00 97 915.6
20260505003237 59 62 6.0 12.0 0.00 0.00 0.00 97 915.5
20260505002938 59 58 0.0 10.0 0.00 0.00 0.00 97 915.4
20260505002736 59 71 9.0 11.0 0.01 0.01 0.00 97 915.5
20260505002338 59 87 9.0 12.0 0.03 0.03 0.00 97 915.4
20260505002236 59 70 9.0 12.0 0.03 0.03 0.00 97 915.4
20260505001738 59 79 8.0 12.0 0.02 0.02 0.00 97 915.4
20260505001736 59 72 8.0 12.0 0.02 0.02 0.00 97 915.4
20260505001236 59 66 5.0 8.0 0.00 0.00 0.00 97 915.4
20260505001138 59 77 1.0 8.0 0.00 0.00 0.00 97 915.4
20260505000736 59 60 8.0 10.0 0.00 0.00 0.00 97 915.3
20260505000538 59 83 8.0 10.0 0.00 0.00 0.00 97 915.3
20260504235938 59 66 6.0 8.0 0.00 0.00 0.00 97 915.3
20260504235736 59 79 6.0 8.0 0.00 0.00 0.00 97 915.4
20260504235337 59 60 0.0 6.0 0.00 0.00 0.00 97 915.3
20260504235237 59 63 7.0 11.0 0.00 0.00 0.00 97 915.3
20260504234738 59 75 8.0 10.0 0.00 0.00 0.00 97 915.1
20260504234736 59 72 8.0 10.0 0.00 0.00 0.00 97 915.1
20260504234237 59 63 4.0 11.0 0.00 0.00 0.00 97 915.1
20260504233736 59 80 8.0 12.0 0.00 0.00 0.00 97 915.1
20260504233537 59 50 9.0 12.0 0.00 0.00 0.00 97 915.1
20260504233236 59 75 10.0 12.0 0.00 0.00 0.00 97 915.1
20260504232937 59 58 8.0 12.0 0.00 0.00 0.00 97 915.0
20260504232736 59 54 8.0 12.0 0.00 0.00 0.00 97 915.0
20260504232337 59 46 5.0 11.0 0.00 0.00 0.00 97 915.0
20260504232236 59 66 0.0 10.0 0.00 0.00 0.00 97 915.0
20260504231738 59 85 10.0 11.0 0.01 0.01 0.00 97 914.9
20260504231736 59 66 10.0 11.0 0.01 0.01 0.00 97 914.9
20260504231236 59 72 8.0 11.0 0.01 0.01 0.00 97 914.9
20260504231137 59 69 8.0 12.0 0.01 0.01 0.00 97 914.9
20260504230736 59 58 9.0 12.0 0.01 0.01 0.00 97 915.0
20260504230537 59 64 8.0 12.0 0.00 0.00 0.00 97 915.0
20260504230236 59 67 4.0 12.0 0.00 0.00 0.00 97 915.0
20260504225937 59 53 8.0 11.0 0.00 0.00 0.00 97 914.9
20260504225736 59 78 8.0 11.0 0.00 0.00 0.00 97 914.9
20260504225337 59 87 8.0 11.0 0.00 0.00 0.00 97 915.0
20260504225237 59 58 7.0 9.0 0.00 0.00 0.00 97 915.0
20260504224737 59 71 7.0 9.0 0.00 0.00 0.00 97 915.0
20260504224236 58 68 7.0 9.0 0.00 0.00 0.00 97 915.0
20260504224137 58 70 7.0 9.0 0.00 0.00 0.00 97 915.0
20260504223736 58 76 4.0 9.0 0.00 0.00 0.00 97 914.9
20260504223537 58 66 9.0 11.0 0.01 0.01 0.00 97 914.9
20260504223236 58 74 9.0 11.0 0.01 0.01 0.00 97 914.8
20260504222937 58 77 9.0 11.0 0.00 0.00 0.00 97 914.8
20260504222736 58 87 8.0 11.0 0.00 0.00 0.00 97 914.7
20260504222337 58 69 6.0 11.0 0.00 0.00 0.00 97 914.7
20260504222236 58 76 1.0 11.0 0.00 0.00 0.00 97 914.7
20260504221737 58 74 10.0 14.0 0.05 0.05 0.00 97 914.7
20260504221735 58 79 10.0 14.0 0.05 0.05 0.00 97 914.7
20260504221235 58 72 10.0 17.0 0.03 0.03 0.00 97 914.7
20260504220735 58 70 13.0 17.0 0.02 0.02 0.00 97 914.6
20260504220537 58 54 13.0 17.0 0.02 0.02 0.00 97 914.5
20260504220235 58 83 12.0 16.0 0.01 0.01 0.00 97 914.6
20260504215937 58 77 10.0 16.0 0.01 0.01 0.00 97 914.7
20260504215735 58 45 10.0 16.0 0.01 0.01 0.00 97 914.7
20260504215336 58 43 10.0 14.0 0.00 0.00 0.00 97 914.7
20260504215236 58 77 9.0 13.0 0.00 0.00 0.00 97 914.8
20260504214735 58 65 10.0 12.0 0.00 0.00 0.00 97 914.8
20260504214235 58 52 9.0 16.0 0.00 0.00 0.00 97 914.8
20260504214136 58 68 9.0 16.0 0.00 0.00 0.00 97 914.7
20260504213735 58 76 10.0 16.0 0.00 0.00 0.00 97 914.6
20260504213536 58 73 11.0 16.0 0.00 0.00 0.00 97 914.6
20260504213235 58 74 12.0 15.0 0.00 0.00 0.00 97 914.5
20260504212936 58 85 12.0 15.0 0.00 0.00 0.00 97 914.4
20260504212735 58 79 4.0 15.0 0.00 0.00 0.00 97 914.4
20260504212336 58 81 14.0 20.0 0.00 0.00 0.00 97 914.3
20260504212236 58 70 15.0 20.0 0.00 0.00 0.00 97 914.3
20260504211737 58 85 14.0 19.0 0.00 0.00 0.00 97 914.2
20260504211735 58 43 14.0 19.0 0.00 0.00 0.00 97 914.3
20260504211235 58 92 14.0 19.0 0.00 0.00 0.00 97 914.2
20260504211136 58 93 13.0 19.0 0.00 0.00 0.00 97 914.3
20260504210735 58 71 14.0 19.0 0.00 0.00 0.00 97 914.3
20260504210235 58 63 12.0 15.0 0.00 0.00 0.00 97 914.3
20260504205936 59 75 12.0 15.0 0.00 0.00 0.00 97 914.4
20260504205735 59 85 12.0 15.0 0.00 0.00 0.00 97 914.4
20260504205336 59 67 10.0 15.0 0.00 0.00 0.00 97 914.5
20260504205235 59 51 10.0 15.0 0.00 0.00 0.00 97 914.5
20260504204736 59 79 10.0 15.0 0.00 0.00 0.00 97 914.5
20260504204235 59 64 10.0 15.0 0.00 0.00 0.00 97 914.5
20260504204136 59 75 11.0 15.0 0.00 0.00 0.00 97 914.5
20260504203734 59 81 12.0 17.0 0.00 0.00 0.00 97 914.5
20260504203536 59 42 12.0 17.0 0.00 0.00 0.00 97 914.4
20260504203234 59 52 11.0 17.0 0.00 0.00 0.00 97 914.5
20260504202936 59 60 13.0 18.0 0.00 0.00 0.00 97 914.5
20260504202734 59 68 13.0 18.0 0.00 0.00 0.00 97 914.5
20260504202336 59 63 13.0 18.0 0.00 0.00 0.00 97 914.5
20260504202234 59 81 14.0 18.0 0.00 0.00 0.00 97 914.5
20260504201736 59 68 15.0 20.0 0.00 0.00 0.00 97 914.4
20260504201734 59 78 15.0 20.0 0.00 0.00 0.00 97 914.3
20260504201235 59 76 16.0 21.0 0.00 0.00 0.00 97 914.3
20260504201136 59 72 14.0 21.0 0.00 0.00 0.00 97 914.2
20260504200734 59 71 17.0 21.0 0.00 0.00 0.00 97 914.2
20260504200536 59 84 15.0 23.0 0.00 0.00 0.00 97 914.1
20260504200234 59 75 16.0 23.0 0.00 0.00 0.00 97 914.1
20260504195936 59 73 16.0 23.0 0.00 0.00 0.00 97 914.1
20260504195734 59 72 17.0 23.0 0.00 0.00 0.00 97 914.0
20260504195336 59 83 14.0 20.0 0.00 0.00 0.00 97 914.0
20260504195234 59 70 14.0 18.0 0.00 0.00 0.00 97 914.2
20260504194736 59 38 14.0 18.0 0.00 0.00 0.00 97 914.2
20260504194734 59 55 14.0 18.0 0.00 0.00 0.00 97 914.2
20260504194234 59 78 13.0 18.0 0.00 0.00 0.00 97 914.3
20260504194136 59 78 14.0 18.0 0.00 0.00 0.00 97 914.3
20260504193734 59 73 15.0 19.0 0.00 0.00 0.00 97 914.3
20260504193538 59 65 15.0 19.0 0.00 0.00 0.00 97 914.2
20260504193234 59 55 14.0 19.0 0.00 0.00 0.00 97 914.3
20260504192935 59 66 13.0 20.0 0.00 0.00 0.00 97 914.3
20260504192734 59 45 13.0 20.0 0.00 0.00 0.00 97 914.4
20260504192335 59 55 15.0 20.0 0.00 0.00 0.00 97 914.3
20260504192234 59 61 16.0 20.0 0.00 0.00 0.00 97 914.3
20260504191736 59 59 15.0 20.0 0.00 0.00 0.00 97 914.2
20260504191734 59 63 15.0 20.0 0.00 0.00 0.00 97 914.2
20260504191234 59 73 16.0 18.0 0.00 0.00 0.00 97 914.3
20260504191135 59 45 16.0 18.0 0.00 0.00 0.00 97 914.3
20260504190734 59 68 15.0 21.0 0.00 0.00 0.00 97 914.3
20260504190535 59 86 17.0 21.0 0.00 0.00 0.00 97 914.2
20260504185936 59 62 18.0 23.0 0.00 0.00 0.00 97 914.3
20260504185335 60 76 18.0 24.0 0.00 0.00 0.00 97 914.2
20260504185234 60 75 17.0 24.0 0.00 0.00 0.00 97 914.3
20260504184736 60 80 16.0 24.0 0.00 0.00 0.00 97 914.4
20260504184734 60 79 16.0 24.0 0.00 0.00 0.00 97 914.4
20260504184234 60 71 18.0 24.0 0.00 0.00 0.00 97 914.4
20260504184135 60 69 18.0 23.0 0.00 0.00 0.00 97 914.4
20260504183734 60 73 17.0 24.0 0.00 0.00 0.00 97 914.3
20260504183535 60 55 19.0 24.0 0.00 0.00 0.00 97 914.4
20260504183233 60 67 18.0 24.0 0.00 0.00 0.00 97 914.4
20260504182935 60 90 20.0 24.0 0.00 0.00 0.00 97 914.5
20260504182733 60 80 19.0 25.0 0.00 0.00 0.00 97 914.6
20260504182335 60 83 20.0 25.0 0.00 0.00 0.00 97 914.3
20260504182233 60 83 19.0 26.0 0.00 0.00 0.00 97 914.4
20260504181736 60 82 21.0 26.0 0.00 0.00 0.00 97 914.2
20260504181734 60 74 21.0 26.0 0.00 0.00 0.00 97 914.2
20260504181233 60 72 21.0 26.0 0.00 0.00 0.00 97 914.6
20260504181135 60 77 22.0 26.0 0.00 0.00 0.00 97 914.4
20260504180734 60 85 20.0 26.0 0.00 0.00 0.00 97 914.8
20260504180535 60 86 20.0 25.0 0.00 0.00 0.00 97 914.7
20260504180233 60 79 18.0 25.0 0.00 0.00 0.00 97 914.8
20260504175935 60 67 19.0 25.0 0.00 0.00 0.00 97 915.1
20260504175733 60 73 18.0 24.0 0.00 0.00 0.00 97 915.0
20260504175335 60 89 17.0 21.0 0.00 0.00 0.00 97 915.0
20260504175233 60 71 17.0 21.0 0.00 0.00 0.00 97 915.2
20260504174735 60 78 15.0 22.0 0.00 0.00 0.00 97 915.3
20260504174733 60 77 15.0 22.0 0.00 0.00 0.00 97 915.4
20260504174233 60 71 15.0 22.0 0.00 0.00 0.00 97 915.4
20260504174135 60 78 16.0 23.0 0.00 0.00 0.00 97 915.4
20260504173733 60 65 14.0 28.0 0.00 0.00 0.00 97 915.4
20260504173534 60 62 15.0 28.0 0.00 0.00 0.00 97 915.3
20260504173233 60 70 18.0 28.0 0.00 0.00 0.00 97 915.4
20260504172935 60 66 18.0 24.0 0.00 0.00 0.00 97 915.1
20260504172733 60 65 17.0 24.0 0.00 0.00 0.00 97 915.2
20260504172334 60 61 19.0 24.0 0.00 0.00 0.00 97 915.3
20260504171735 60 86 18.0 21.0 0.00 0.00 0.00 97 915.4
20260504171134 60 77 18.0 24.0 0.00 0.00 0.00 97 915.5
20260504170534 60 63 17.0 23.0 0.00 0.00 0.00 97 915.6
20260504160232 60 81 21.0 27.0 0.00 0.00 0.00 97 915.7
20260504151133 61 60 21.0 26.0 0.00 0.00 0.00 97 916.2
20260504150732 61 96 18.0 23.0 0.00 0.00 0.00 97 916.1
20260504150533 61 75 5.0 23.0 0.00 0.00 0.00 97 916.2
20260504150232 61 67 15.0 27.0 0.00 0.00 0.00 97 916.1
20260504141133 62 68 23.0 29.0 0.00 0.00 0.00 97 915.8
20260504140732 62 73 22.0 32.0 0.00 0.00 0.00 97 915.9
20260504140533 62 46 22.0 32.0 0.00 0.00 0.00 97 915.8
20260504140232 62 77 20.0 28.0 0.00 0.00 0.00 97 915.6
20260504130731 62 67 21.0 28.0 0.00 0.00 0.00 97 916.0
20260504130532 62 65 18.0 22.0 0.00 0.00 0.00 97 916.0
20260504130231 62 85 4.0 19.0 0.00 0.00 0.00 97 916.0
20260504120231 62 95 2.0 20.0 0.00 0.00 0.00 97 915.0
20260504100531 63 84 17.0 21.0 0.00 0.00 0.00 97 915.2
20260504100230 63 71 15.0 22.0 0.00 0.00 0.00 97 915.3
20260504080229 61 70 0.0 10.0 0.00 0.00 0.00 97 915.8
20260504070228 61 74 0.0 12.0 0.00 0.00 0.00 96 916.4
20260504060229 64 85 4.0 11.0 0.00 0.00 0.00 89 916.8
20260504050727 64 80 10.0 16.0 0.00 0.00 0.00 87 917.0
20260504050529 64 104 11.0 16.0 0.00 0.00 0.00 88 917.0
20260504045929 64 98 13.0 18.0 0.00 0.00 0.00 86 916.7
20260504045727 65 67 1.0 15.0 0.00 0.00 0.00 87 916.9
20260504045329 65 83 11.0 17.0 0.00 0.00 0.00 88 916.9
20260504045227 65 67 11.0 17.0 0.00 0.00 0.00 87 916.9
20260504044729 65 71 10.0 16.0 0.00 0.00 0.00 87 917.0
20260504044727 65 76 10.0 16.0 0.00 0.00 0.00 87 917.0
20260504044227 65 73 10.0 17.0 0.00 0.00 0.00 88 917.0
20260504044128 65 66 10.0 17.0 0.00 0.00 0.00 89 917.1
20260504043727 65 86 12.0 17.0 0.00 0.00 0.00 88 916.8
20260504043528 65 78 11.0 17.0 0.00 0.00 0.00 88 916.9
20260504043227 65 70 0.0 10.0 0.00 0.00 0.00 88 916.9
20260504042928 65 84 11.0 15.0 0.00 0.00 0.00 87 916.9
20260504042727 65 60 11.0 15.0 0.00 0.00 0.00 88 916.9
20260504042328 64 77 10.0 15.0 0.00 0.00 0.00 88 916.8
20260504042229 64 64 11.0 15.0 0.00 0.00 0.00 89 916.9
20260504040727 63 72 10.0 13.0 0.00 0.00 0.00 90 917.1
20260504040528 63 78 10.0 13.0 0.00 0.00 0.00 90 917.1
20260504040227 63 49 9.0 13.0 0.00 0.00 0.00 90 917.1
20260504035928 63 64 7.0 11.0 0.00 0.00 0.00 90 917.1
20260504035727 63 66 10.0 13.0 0.00 0.00 0.00 90 917.1
20260504035328 63 84 9.0 13.0 0.00 0.00 0.00 89 917.2
20260504035227 63 72 9.0 13.0 0.00 0.00 0.00 90 917.1
20260504034728 63 78 1.0 11.0 0.00 0.00 0.00 90 917.2
20260504034228 63 85 8.0 11.0 0.00 0.00 0.00 90 917.2
20260504034128 63 57 5.0 11.0 0.00 0.00 0.00 90 917.2
20260504033727 62 71 0.0 9.0 0.00 0.00 0.00 90 917.2
20260504031728 63 52 3.0 12.0 0.00 0.00 0.00 86 917.1
20260504031726 63 55 3.0 12.0 0.00 0.00 0.00 86 917.0
20260504031228 63 71 0.0 10.0 0.00 0.00 0.00 87 917.0
20260504031129 63 58 0.0 0.0 0.00 0.00 0.00 87 917.1
20260504030726 63 60 0.0 9.0 0.00 0.00 0.00 86 917.2
20260504030528 63 57 0.0 8.0 0.00 0.00 0.00 86 917.2
20260504030226 63 78 3.0 10.0 0.00 0.00 0.00 86 917.3
20260504025927 63 64 1.0 10.0 0.00 0.00 0.00 87 917.4
20260504025726 63 46 1.0 8.0 0.00 0.00 0.00 86 917.4
20260504025226 63 67 0.0 8.0 0.00 0.00 0.00 86 917.4
20260504024728 63 73 1.0 10.0 0.00 0.00 0.00 86 917.4
20260504024726 63 62 1.0 10.0 0.00 0.00 0.00 86 917.4
20260504024226 63 70 0.0 0.0 0.00 0.00 0.00 85 917.4
20260504024127 63 91 0.0 11.0 0.00 0.00 0.00 85 917.4
20260504022226 64 66 1.0 9.0 0.00 0.00 0.00 85 917.3
20260504021728 65 64 8.0 9.0 0.00 0.00 0.00 85 917.2
20260504021726 65 38 8.0 9.0 0.00 0.00 0.00 85 917.2
20260504020727 64 45 2.0 11.0 0.00 0.00 0.00 84 917.1
20260504015927 64 21 2.0 10.0 0.00 0.00 0.00 85 917.1
20260504015726 64 34 5.0 11.0 0.00 0.00 0.00 84 917.0
20260504015327 64 27 10.0 14.0 0.00 0.00 0.00 84 916.8
20260504015226 64 57 10.0 14.0 0.00 0.00 0.00 84 916.8
20260504014727 64 43 10.0 13.0 0.00 0.00 0.00 85 917.0
20260504014226 63 23 6.0 13.0 0.00 0.00 0.00 85 917.0
20260504014127 63 19 0.0 10.0 0.00 0.00 0.00 85 917.0
20260504013726 63 46 11.0 13.0 0.00 0.00 0.00 85 917.0
20260504013527 63 45 9.0 13.0 0.00 0.00 0.00 85 917.1
20260504012927 63 45 2.0 12.0 0.00 0.00 0.00 84 917.1
20260504012726 64 58 10.0 13.0 0.00 0.00 0.00 84 917.1
20260504012327 64 65 9.0 12.0 0.00 0.00 0.00 84 917.1
20260504012226 64 59 9.0 12.0 0.00 0.00 0.00 84 917.0
20260504011727 64 46 8.0 15.0 0.00 0.00 0.00 84 916.8
20260504011225 64 41 6.0 13.0 0.00 0.00 0.00 84 916.8
20260504011127 64 53 0.0 11.0 0.00 0.00 0.00 84 916.8
20260504010725 64 43 10.0 12.0 0.00 0.00 0.00 84 916.7
20260504010528 64 47 10.0 12.0 0.00 0.00 0.00 84 916.6
20260504010225 64 36 1.0 11.0 0.00 0.00 0.00 85 916.6
20260504005927 64 21 5.0 13.0 0.00 0.00 0.00 84 916.6
20260504005725 64 39 10.0 12.0 0.00 0.00 0.00 84 916.6
20260504005327 64 34 9.0 12.0 0.00 0.00 0.00 84 916.6
20260504005225 64 19 8.0 12.0 0.00 0.00 0.00 85 916.6